JBU363 KBOS-TLPL

Flight info

Callsign JBU363
Flight time N/A
Altitude 36000
Route SSOXS7 SSOXS Q167 SPDEY/N0459F330 Y489 OHRYN/N0460F340 Y489 BEHHR/M079F340 Y489 RESQU/M079F330 SKPPR L455 BEXUM/M079F350 L455 KINCH/N0464F350 L455 LENNT ELOPO UB520 ANU UA312 FOF A324 BNE
Aircraft A21N/M-SDE3FGHIRWY/LB1

Departure

Time N/A
Airport Boston Logan International Airport (KBOS)

Arrival

Time 2026-05-06 22:31
Airport Hewanorra International Airport (TLPL)
Time Latitude Longitude Altitude Speed Heading
2026-05-06 21:45 17.74279 -62.66805 37047 ft 469 kts 135°
2026-05-06 21:45 17.70028 -62.61607 37049 ft 468 kts 135°
2026-05-06 21:46 17.65781 -62.56404 37047 ft 469 kts 134°
2026-05-06 21:46 17.61821 -62.50919 37046 ft 471 kts 130°
2026-05-06 21:47 17.57991 -62.45378 37047 ft 471 kts 130°
2026-05-06 21:47 17.54138 -62.39803 37046 ft 471 kts 130°
2026-05-06 21:48 17.50298 -62.34257 37049 ft 471 kts 130°
2026-05-06 21:48 17.46440 -62.28693 37049 ft 471 kts 130°
2026-05-06 21:49 17.42602 -62.23164 37051 ft 471 kts 130°
2026-05-06 21:49 17.38764 -62.17636 37053 ft 471 kts 131°
2026-05-06 21:50 17.34899 -62.12076 37054 ft 470 kts 130°
2026-05-06 21:50 17.31075 -62.06579 37055 ft 470 kts 130°
2026-05-06 21:51 17.27219 -62.01037 37057 ft 471 kts 130°
2026-05-06 21:51 17.23389 -61.95534 37059 ft 470 kts 130°
2026-05-06 21:52 17.19520 -61.89983 37061 ft 470 kts 131°
2026-05-06 21:52 17.15410 -61.84775 37062 ft 462 kts 140°
2026-05-06 21:53 17.10422 -61.80639 37066 ft 454 kts 153°
2026-05-06 21:53 17.04812 -61.77755 37066 ft 445 kts 165°
2026-05-06 21:54 16.98875 -61.75861 37067 ft 446 kts 169°
2026-05-06 21:54 16.92910 -61.74078 37061 ft 446 kts 169°
2026-05-06 21:55 16.86916 -61.72274 37061 ft 446 kts 169°
2026-05-06 21:55 16.80925 -61.70465 37055 ft 447 kts 168°
2026-05-06 21:56 16.74921 -61.68650 37056 ft 448 kts 168°
2026-05-06 21:56 16.68902 -61.66829 37051 ft 448 kts 168°
2026-05-06 21:57 16.62910 -61.65019 37049 ft 448 kts 168°
2026-05-06 21:57 16.56922 -61.63210 37047 ft 448 kts 168°
2026-05-06 21:58 16.50923 -61.61400 37048 ft 449 kts 168°
2026-05-06 21:58 16.44909 -61.59586 37049 ft 449 kts 168°
2026-05-06 21:59 16.38881 -61.57766 37057 ft 450 kts 168°
2026-05-06 21:59 16.32849 -61.55945 37057 ft 450 kts 168°
2026-05-06 22:00 16.26835 -61.54134 37055 ft 450 kts 168°
2026-05-06 22:00 16.20826 -61.52285 37059 ft 450 kts 167°
2026-05-06 22:01 16.14797 -61.50406 37052 ft 450 kts 167°
2026-05-06 22:01 16.08776 -61.48532 37045 ft 451 kts 167°
2026-05-06 22:02 16.02738 -61.46654 37044 ft 452 kts 167°
2026-05-06 22:02 15.96723 -61.44785 37042 ft 452 kts 167°
2026-05-06 22:03 15.90658 -61.42902 37046 ft 452 kts 167°
2026-05-06 22:03 15.84626 -61.41030 37049 ft 453 kts 167°
2026-05-06 22:04 15.78591 -61.39156 37049 ft 452 kts 167°
2026-05-06 22:04 15.72548 -61.37283 37050 ft 452 kts 167°
2026-05-06 22:05 15.66492 -61.35407 37054 ft 452 kts 167°
2026-05-06 22:05 15.60461 -61.33540 37054 ft 453 kts 167°
2026-05-06 22:06 15.54416 -61.31669 37056 ft 454 kts 167°
2026-05-06 22:06 15.48334 -61.29789 37055 ft 454 kts 167°
2026-05-06 22:07 15.42302 -61.27925 36781 ft 454 kts 167°
2026-05-06 22:07 15.39265 -61.26987 36482 ft 452 kts 167°
2026-05-06 22:07 15.36236 -61.26052 36057 ft 450 kts 167°
2026-05-06 22:08 15.33225 -61.25122 35388 ft 448 kts 167°
2026-05-06 22:08 15.30262 -61.24208 34695 ft 448 kts 167°
2026-05-06 22:08 15.27274 -61.23286 33991 ft 447 kts 167°
2026-05-06 22:08 15.24316 -61.22373 33278 ft 446 kts 167°
2026-05-06 22:09 15.21311 -61.21448 32551 ft 446 kts 167°
2026-05-06 22:09 15.18329 -61.20530 31859 ft 447 kts 166°
2026-05-06 22:09 15.15336 -61.19608 31117 ft 450 kts 166°
2026-05-06 22:09 15.12339 -61.18685 30354 ft 452 kts 166°
2026-05-06 22:10 15.09305 -61.17751 29558 ft 454 kts 166°
2026-05-06 22:10 15.06307 -61.16828 28759 ft 457 kts 166°
2026-05-06 22:10 15.03241 -61.15886 27941 ft 460 kts 166°
2026-05-06 22:10 15.00176 -61.14944 27093 ft 463 kts 165°
2026-05-06 22:11 14.97056 -61.13985 26212 ft 466 kts 165°
2026-05-06 22:11 14.93980 -61.13039 25611 ft 462 kts 165°
2026-05-06 22:11 14.90875 -61.12082 25036 ft 457 kts 165°
2026-05-06 22:11 14.87865 -61.11155 24468 ft 453 kts 165°
2026-05-06 22:12 14.84855 -61.10228 23903 ft 448 kts 164°
2026-05-06 22:12 14.81858 -61.09307 23340 ft 444 kts 164°
2026-05-06 22:12 14.78910 -61.08401 22780 ft 441 kts 164°
2026-05-06 22:12 14.76010 -61.07509 22232 ft 437 kts 163°
2026-05-06 22:13 14.73076 -61.06608 21676 ft 434 kts 163°
2026-05-06 22:13 14.70204 -61.05724 21105 ft 432 kts 163°
2026-05-06 22:13 14.67308 -61.04835 20499 ft 430 kts 163°
2026-05-06 22:13 14.64451 -61.03958 19910 ft 429 kts 163°
2026-05-06 22:14 14.61585 -61.03115 19297 ft 428 kts 165°
2026-05-06 22:14 14.58672 -61.02492 18686 ft 427 kts 169°
2026-05-06 22:14 14.55719 -61.02127 18118 ft 426 kts 174°
2026-05-06 22:14 14.52783 -61.01942 17568 ft 424 kts 176°
2026-05-06 22:15 14.49809 -61.01786 16931 ft 423 kts 176°
2026-05-06 22:15 14.46889 -61.01638 16341 ft 420 kts 176°
2026-05-06 22:15 14.43944 -61.01487 15763 ft 418 kts 176°
2026-05-06 22:15 14.41043 -61.01335 15154 ft 416 kts 175°
2026-05-06 22:16 14.38196 -61.01183 14577 ft 413 kts 175°
2026-05-06 22:16 14.35324 -61.01030 13989 ft 411 kts 175°
2026-05-06 22:16 14.32452 -61.00876 13396 ft 407 kts 175°
2026-05-06 22:16 14.29634 -61.00724 12812 ft 404 kts 175°
2026-05-06 22:17 14.26834 -61.00572 12252 ft 401 kts 175°
2026-05-06 22:17 14.24060 -61.00422 11683 ft 398 kts 175°
2026-05-06 22:17 14.21301 -61.00275 11230 ft 389 kts 176°
2026-05-06 22:17 14.18655 -61.00456 10911 ft 380 kts 189°
2026-05-06 22:18 14.16155 -61.01230 10732 ft 367 kts 201°
2026-05-06 22:18 14.13843 -61.02275 10545 ft 354 kts 203°
2026-05-06 22:18 14.11654 -61.03318 10340 ft 342 kts 204°
2026-05-06 22:18 14.09521 -61.04335 10181 ft 329 kts 204°
2026-05-06 22:19 14.07469 -61.05303 10041 ft 317 kts 203°
2026-05-06 22:19 14.05465 -61.06240 9821 ft 309 kts 202°
2026-05-06 22:19 14.03510 -61.07150 9412 ft 307 kts 202°
2026-05-06 22:19 14.01571 -61.08049 9096 ft 302 kts 202°
2026-05-06 22:20 13.99692 -61.09005 8730 ft 301 kts 208°
2026-05-06 22:20 13.97926 -61.10181 8321 ft 301 kts 214°
2026-05-06 22:20 13.96314 -61.11406 7951 ft 297 kts 215°
2026-05-06 22:20 13.94696 -61.12661 7585 ft 292 kts 215°
2026-05-06 22:21 13.93085 -61.13914 7224 ft 287 kts 215°
2026-05-06 22:21 13.91487 -61.15152 6888 ft 282 kts 215°
2026-05-06 22:21 13.89930 -61.16353 6539 ft 277 kts 215°
2026-05-06 22:21 13.88412 -61.17522 6209 ft 272 kts 215°
2026-05-06 22:22 13.86905 -61.18681 5874 ft 268 kts 215°
2026-05-06 22:22 13.85420 -61.19824 5542 ft 264 kts 215°
2026-05-06 22:22 13.83903 -61.20899 5193 ft 259 kts 204°
2026-05-06 22:22 13.82211 -61.21429 4860 ft 250 kts 182°
2026-05-06 22:23 13.80516 -61.21480 4577 ft 242 kts 176°
2026-05-06 22:23 13.78854 -61.21455 4288 ft 236 kts 175°
2026-05-06 22:23 13.77227 -61.21429 3994 ft 226 kts 175°
2026-05-06 22:23 13.75723 -61.21373 3782 ft 208 kts 167°
2026-05-06 22:24 13.74461 -61.20805 3487 ft 186 kts 137°
2026-05-06 22:24 13.73755 -61.19829 3449 ft 162 kts 110°
2026-05-06 22:24 13.73494 -61.18795 3354 ft 139 kts 96°
2026-05-06 22:24 13.73410 -61.17839 3307 ft 133 kts 91°
2026-05-06 22:25 13.73378 -61.16911 3184 ft 127 kts 90°
2026-05-06 22:25 13.73362 -61.15994 2792 ft 129 kts 89°
2026-05-06 22:25 13.73353 -61.15077 2392 ft 130 kts 89°
2026-05-06 22:25 13.73348 -61.14156 2016 ft 130 kts 89°
2026-05-06 22:26 13.73345 -61.13239 1774 ft 127 kts 89°
2026-05-06 22:26 13.73344 -61.12326 1772 ft 129 kts 89°
2026-05-06 22:26 13.73343 -61.11393 1765 ft 129 kts 89°
2026-05-06 22:26 13.73343 -61.10471 1763 ft 129 kts 89°
2026-05-06 22:27 13.73344 -61.09545 1762 ft 129 kts 89°
2026-05-06 22:27 13.73344 -61.08619 1762 ft 129 kts 88°
2026-05-06 22:27 13.73344 -61.07692 1761 ft 130 kts 88°
2026-05-06 22:27 13.73345 -61.06762 1764 ft 130 kts 88°
2026-05-06 22:28 13.73345 -61.05837 1752 ft 130 kts 88°
2026-05-06 22:28 13.73345 -61.04898 1582 ft 129 kts 89°
2026-05-06 22:28 13.73344 -61.03981 1408 ft 129 kts 89°
2026-05-06 22:28 13.73344 -61.03064 1234 ft 129 kts 89°
2026-05-06 22:29 13.73344 -61.02143 1067 ft 128 kts 89°
2026-05-06 22:29 13.73344 -61.01230 895 ft 128 kts 89°
2026-05-06 22:29 13.73344 -61.00319 728 ft 127 kts 89°
2026-05-06 22:29 13.73345 -60.99407 562 ft 127 kts 89°
2026-05-06 22:30 13.73340 -60.98490 407 ft 127 kts 89°
2026-05-06 22:30 13.73335 -60.97584 253 ft 126 kts 89°
2026-05-06 22:30 13.73336 -60.96695 98 ft 126 kts 90°
2026-05-06 22:30 13.73338 -60.95844 31 ft 91 kts 90°
2026-05-06 22:31 13.73338 -60.95396 30 ft 47 kts 90°
2026-05-06 22:31 13.73337 -60.95204 31 ft 9 kts 87°
2026-05-06 22:31 13.73375 -60.95158 32 ft 8 kts 13°
2026-05-06 22:31 13.73434 -60.95155 33 ft 10 kts
2026-05-06 22:32 13.73502 -60.95143 34 ft 9 kts 48°
2026-05-06 22:32 13.73523 -60.95085 34 ft 6 kts 53°
2026-05-06 22:32 13.73569 -60.95073 34 ft 3 kts 360°
2026-05-06 22:32 13.73590 -60.95074 34 ft 0 kts 359°
2026-05-06 22:33 13.73592 -60.95074 34 ft 0 kts 360°